This is the latest recevied weather packets stored in our database for station/object K0SDS. If no packets are shown the sender has not sent any weather packets the latest 10 day(s).
| Time | Temp. | Humidity | Pressure | Rain* | Wind** | Luminosity | Snow |
|---|---|---|---|---|---|---|---|
| 1778141405 | 6.67° C | 82% | 1016.8 hPa | 0 mm | - | 0 W/m² | - |
| 1778141101 | 6.67° C | 82% | 1016.9 hPa | 0 mm | - | 0 W/m² | - |
| 1778140796 | 7.22° C | 81% | 1016.8 hPa | 0 mm | - | 0 W/m² | - |
| 1778140493 | 6.67° C | 83% | 1016.7 hPa | 0 mm | - | 0 W/m² | - |
| 1778140189 | 6.67° C | 84% | 1016.9 hPa | 0 mm | - | 0 W/m² | - |
| 1778139886 | 6.67° C | 85% | 1016.7 hPa | 0 mm | - | 0 W/m² | - |
| 1778139584 | 6.67° C | 84% | 1016.8 hPa | 0 mm | - | 0 W/m² | - |
| 1778139280 | 6.67° C | 82% | 1016.8 hPa | 0 mm | - | 0 W/m² | - |
| 1778138977 | 6.67° C | 81% | 1016.9 hPa | 0 mm | - | 0 W/m² | - |
| 1778138675 | 6.67° C | 82% | 1016.9 hPa | 0 mm | - | 0 W/m² | - |
| 1778138372 | 6.11° C | 82% | 1016.8 hPa | 0 mm | - | 0 W/m² | - |
| 1778138069 | 6.67° C | 82% | 1016.9 hPa | 0 mm | - | 0 W/m² | - |
| 1778137765 | 6.67° C | 83% | 1017 hPa | 0 mm | - | 0 W/m² | - |
| 1778137463 | 6.67° C | 83% | 1017 hPa | 0 mm | - | 0 W/m² | - |
| 1778137159 | 6.67° C | 82% | 1017.3 hPa | 0 mm | - | 0 W/m² | - |
| 1778136855 | 6.67° C | 81% | 1017.3 hPa | 0 mm | - | 0 W/m² | - |
| 1778136547 | 7.22° C | 80% | 1017.6 hPa | 0 mm | - | 0 W/m² | - |
| 1778136246 | 7.22° C | 79% | 1017.4 hPa | 0 mm | - | 0 W/m² | - |
| 1778135943 | 7.78° C | 77% | 1017.3 hPa | 0 mm | - | 0 W/m² | - |
| 1778135641 | 7.78° C | 77% | 1017.4 hPa | 0 mm | - | 0 W/m² | - |
| 1778135337 | 7.78° C | 76% | 1017.5 hPa | 0 mm | - | 0 W/m² | - |
| 1778135034 | 7.78° C | 76% | 1017.2 hPa | 0 mm | - | 0 W/m² | - |
| 1778134731 | 8.33° C | 74% | 1017.7 hPa | 0 mm | - | 0 W/m² | - |
| 1778134429 | 8.33° C | 73% | 1017.6 hPa | 0 mm | - | 0 W/m² | - |
| 1778134128 | 8.89° C | 71% | 1017.7 hPa | 0 mm | - | 0 W/m² | - |
* Rain latest hour (hover to see other rain measurements)
** Current wind speed in m/s (hover to see current wind gust speed)